Вернуться в каталог

YUNYAO-1 38

АктивенПогодаSSO
NORAD 62730·PAYLOAD·🇨🇳 China
Это название спутника еще не подтверждено официальными источниками.

Запущен Jan 20, 2025 с Jiuquan Satellite Launch Center

Loading…

Ближайшие Пролёты (ближайшие 24 часа)

TLE

СвежийSource: Space-Track

Эпоха: Sep 14, 2026, 21:48 UTC

1 62730U 25013B   26257.90840529  .00002866  00000-0  17135-3 0  9990
2 62730  97.6645  67.4678 0014518  64.8464 295.4270 15.11809386 90882

Отслеживайте YUNYAO-1 38 в реальном времени с AllMySat

Download on the App Store